Regional Weather Roundup
Issued by NWS Lake Charles, LA

Current Version | Previous Version | Text Only | Print | Product List | Glossary On
Versions: 1 2 3 4 5 6 7 8 9 10 11 12 13 14 15 16 17 18 19 20 21 22 23 24 25 26 27 28 29 30 31 32 33 34 35 36 37 38 39 40 41 42 43 44 45 46 47 48 49
000
ASUS44 KLCH 070210
RWRLCH
RWRLCH
REGIONAL WEATHER ROUNDUP
NATIONAL WEATHER SERVICE LAKE CHARLES LA
900 PM CDT MON JUL 06 2015

Note: "fair" indicates few or no clouds below 12,000 feet with no
significant weather and/or obstructions to visibility.


ACROSS SOUTHEAST TEXAS

CITY           SKY/WX    TMP DP  RH WIND       PRES   REMARKS
BEAUMONT       PTCLDY    82  76  81 S10       29.98F
BEAUMONT CITY    N/A     81  76  84 S7        29.99S
ORANGE         PTCLDY    83  72  70 S7        30.00F
JASPER         PTCLDY    84  76  77 S5        30.00S
$$

ACROSS CENTRAL LOUISIANA

CITY           SKY/WX    TMP DP  RH WIND       PRES   REMARKS
LEESVILLE      PTCLDY    82  73  73 S8        29.98S
FULLERTON        N/A     84  73  69 VRB3      29.97S
ALEXANDRIA INT PTCLDY    82  73  74 S7        29.98R
ESLER FIELD    PTCLDY    83  74  74 S3        30.00S
DERIDDER         N/A     83  75  78 S6        30.01S
OAKDALE        CLEAR     79  76  88 CALM      30.00S
OPELOUSAS        N/A     81  74  81 S7        30.01F
$$

ACROSS SOUTHWEST AND SOUTH CENTRAL LOUISIANA

CITY           SKY/WX    TMP DP  RH WIND       PRES   REMARKS
SULPHUR        PTCLDY    84  76  77 S8        29.99F
LAKE CHARLES   PTCLDY    83  76  79 S7        29.99F
CHENNAULT INT  NOT AVBL
CAMERON PHI    MOCLDY    84  77  79 S17G23    30.02F
DEQUINCY         N/A     80  79  95 SE3       29.99S
JENNINGS         N/A     82  76  81 S7        30.00F
LAFAYETTE      CLEAR     83  75  77 S6        30.02F
NEW IBERIA     NOT AVBL
ABBEVILLE        N/A     80  76  89 SE5       30.02F
PATTERSON      CLEAR     81  75  83 S6        30.05S
SALT POINT       N/A     84  77  79 CALM      30.02F
$$

SELECTED SITES ACROSS THE REGION

CITY           SKY/WX    TMP DP  RH WIND       PRES   REMARKS
HOUSTON BUSH   MOCLDY    84  73  69 S14       29.96F
HOUSTON HOBBY  PTCLDY    83  75  77 S9        29.96F
GALVESTON      PTCLDY    84  78  82 S16       29.99F
COLLEGE STAT   CLEAR     83  72  69 S12       29.93S
CONROE         PTCLDY    83  72  69 S12       29.95F
HUNTSVILLE     CLEAR     84  71  65 S6        29.94F
LUFKIN         CLEAR     80  72  76 S8        29.95F
SHREVEPORT     CLOUDY    84  70  62 S9        29.97R
MONROE         PTCLDY    82  75  79 S6        29.99S
NATCHEZ MS     NOT AVBL
BATON ROUGE    CLEAR     83  74  74 S6        30.03F
N.O. INTL ARPT PTCLDY    83  75  77 S8        30.04F
SLIDELL        PTCLDY    82  79  90 E5        30.05F
$$

MARINE REPORTS

STATION/POSITION TIME  TEMP    WIND        PRES    VSBY  WAVE
                       AIR SEA DIR/SP/G                  HT/PER
                 (UTC) (F)     (DEG/KT/KT) (MB)    (MI)  (FT/S)
BUOY 30 S HIGH I 0150   85 85  170/ 16/ 19 1014.6F         4/ 6
SEA RIM ST PARK  0100   84     170/ 13/ 16 1016.3F
PORT ARTHUR      0100      85  170/  8/ 14 1015.8F
SABINE PASS N    0100   85 86  190/ 11/ 16 1016.0F
TEXAS POINT      NOT AVBL
CALCASIEU PASS   0100   85 85  180/ 14/ 20   N/A
LK CHARLES BEACH 0100   85 85                N/A
MARSH ISLAND     0100   89     170/ 11/ 13   N/A           0
FRESH WATER LOCK 0100   84 88  150/  9/ 12 1016.8F
AMERADA PASS     0100   84 86  150/  5/  7 1017.5F
$$


USA.gov is the U.S. government's official web portal to all federal, state and local government web resources and services.